When you browse on this site, cookies collect data to enhance your experience and personalize the content and advertising you see.
Visit our Privacy Policy to learn more. By continuing to use the site, you agree to this use of cookies and data.

Stündliche Wetter Bolshie Duravki

Heute, 23 September, Mittwoch

Zeit Temperatur Niederschläge Wind Luftdruck Luftfeuchtigkeit
00:00 +12°C° 0 mm 2 m/S 743 mmHg 88%
01:00 +12°C° 0 mm 2 m/S 743 mmHg 89%
02:00 +12°C° 0 mm 2 m/S 743 mmHg 88%
03:00 +12°C° 0 mm 2 m/S 743 mmHg 89%
04:00 +10°C° 0 mm 2 m/S 743 mmHg 90%
05:00 +10°C° 0 mm 2 m/S 743 mmHg 91%
06:00 +12°C° 0 mm 2 m/S 743 mmHg 87%
07:00 +12°C° 0 mm 3 m/S 743 mmHg 84%
08:00 +13°C° 0 mm 3 m/S 743 mmHg 81%
09:00 +16°C° 0 mm 3 m/S 743 mmHg 76%
10:00 +18°C° 0 mm 3 m/S 743 mmHg 72%
11:00 +19°C° 0 mm 3 m/S 743 mmHg 67%
12:00 +20°C° 0 mm 4 m/S 743 mmHg 63%
13:00 +21°C° 0 mm 4 m/S 743 mmHg 59%
14:00 +22°C° 0 mm 4 m/S 743 mmHg 55%
15:00 +20°C° 0 mm 4 m/S 743 mmHg 59%
16:00 +19°C° 0 mm 3 m/S 742 mmHg 64%
17:00 +18°C° 0 mm 3 m/S 742 mmHg 68%
18:00 +16°C° 0 mm 3 m/S 742 mmHg 69%
19:00 +14°C° 0 mm 3 m/S 742 mmHg 70%
20:00 +13°C° 0 mm 3 m/S 742 mmHg 71%
21:00 +12°C° 0 mm 3 m/S 742 mmHg 71%
22:00 +12°C° 0 mm 3 m/S 742 mmHg 71%
23:00 +11°C° 0 mm 3 m/S 742 mmHg 71%

Morgen, 24 September, Donnerstag

Zeit Temperatur Niederschläge Wind Luftdruck Luftfeuchtigkeit
00:00 +11°C° 0 mm 3 m/S 742 mmHg 70%
01:00 +10°C° 0 mm 3 m/S 742 mmHg 69%
02:00 +10°C° 0 mm 3 m/S 743 mmHg 68%
03:00 +10°C° 0 mm 3 m/S 742 mmHg 68%
04:00 +9°C° 0 mm 3 m/S 742 mmHg 69%
05:00 +9°C° 0 mm 3 m/S 742 mmHg 69%
06:00 +10°C° 0 mm 3 m/S 742 mmHg 69%
07:00 +11°C° 0 mm 3 m/S 742 mmHg 68%
08:00 +12°C° 0 mm 3 m/S 742 mmHg 67%
09:00 +14°C° 0 mm 3 m/S 742 mmHg 63%
10:00 +15°C° 0 mm 4 m/S 742 mmHg 59%
11:00 +18°C° 0 mm 4 m/S 743 mmHg 56%
12:00 +19°C° 0 mm 4 m/S 743 mmHg 54%
13:00 +20°C° 0 mm 4 m/S 743 mmHg 52%
14:00 +21°C° 0 mm 4 m/S 743 mmHg 51%
15:00 +19°C° 0 mm 4 m/S 742 mmHg 57%
16:00 +18°C° 0 mm 3 m/S 742 mmHg 63%
17:00 +17°C° 0 mm 3 m/S 742 mmHg 70%
18:00 +16°C° 0 mm 3 m/S 742 mmHg 72%
19:00 +14°C° 0 mm 3 m/S 742 mmHg 75%
20:00 +13°C° 0 mm 3 m/S 742 mmHg 77%
21:00 +12°C° 0 mm 3 m/S 742 mmHg 77%
22:00 +12°C° 0 mm 3 m/S 742 mmHg 76%
23:00 +11°C° 0 mm 3 m/S 742 mmHg 75%

übermorgen, 25 September, Freitag

Zeit Temperatur Niederschläge Wind Luftdruck Luftfeuchtigkeit
00:00 +11°C° 0 mm 3 m/S 742 mmHg 75%
01:00 +10°C° 0 mm 3 m/S 742 mmHg 75%
02:00 +10°C° 0 mm 3 m/S 742 mmHg 74%
03:00 +10°C° 0 mm 3 m/S 742 mmHg 74%
04:00 +10°C° 0 mm 3 m/S 742 mmHg 74%
05:00 +9°C° 0 mm 3 m/S 742 mmHg 74%
06:00 +10°C° 0 mm 3 m/S 742 mmHg 71%
07:00 +12°C° 0 mm 3 m/S 742 mmHg 69%
08:00 +13°C° 0 mm 4 m/S 742 mmHg 66%
09:00 +14°C° 0 mm 4 m/S 741 mmHg 63%
10:00 +17°C° 0 mm 4 m/S 741 mmHg 61%
11:00 +19°C° 0 mm 4 m/S 741 mmHg 58%
12:00 +20°C° 0 mm 5 m/S 741 mmHg 57%
13:00 +21°C° 0 mm 5 m/S 741 mmHg 57%
14:00 +21°C° 0 mm 5 m/S 741 mmHg 56%
15:00 +20°C° 0 mm 5 m/S 740 mmHg 61%
16:00 +19°C° 0 mm 4 m/S 740 mmHg 67%
17:00 +18°C° 0 mm 4 m/S 740 mmHg 72%
18:00 +17°C° 0 mm 4 m/S 740 mmHg 73%
19:00 +17°C° 0 mm 4 m/S 740 mmHg 74%
20:00 +15°C° 0 mm 4 m/S 740 mmHg 75%
21:00 +15°C° 0 mm 5 m/S 740 mmHg 72%
22:00 +14°C° 0 mm 5 m/S 740 mmHg 70%
23:00 +14°C° 0 mm 5 m/S 740 mmHg 67%

26 September, Samstag

Zeit Temperatur Niederschläge Wind Luftdruck Luftfeuchtigkeit
00:00 +14°C° 0 mm 5 m/S 740 mmHg 67%
01:00 +13°C° 0 mm 5 m/S 739 mmHg 67%
02:00 +13°C° 0 mm 5 m/S 739 mmHg 67%
03:00 +13°C° 0 mm 5 m/S 739 mmHg 68%
04:00 +12°C° 0 mm 5 m/S 739 mmHg 68%
05:00 +12°C° 0 mm 5 m/S 739 mmHg 68%
06:00 +13°C° 0 mm 5 m/S 739 mmHg 69%
07:00 +13°C° 0 mm 5 m/S 739 mmHg 69%
08:00 +13°C° 0 mm 5 m/S 739 mmHg 70%
09:00 +15°C° 0 mm 6 m/S 740 mmHg 67%
10:00 +17°C° 0 mm 6 m/S 740 mmHg 63%
11:00 +20°C° 0 mm 6 m/S 740 mmHg 60%
12:00 +20°C° 0 mm 6 m/S 740 mmHg 58%
13:00 +21°C° 0 mm 6 m/S 740 mmHg 56%
14:00 +22°C° 0 mm 7 m/S 740 mmHg 55%
15:00 +21°C° 0 mm 6 m/S 740 mmHg 59%
16:00 +20°C° 0 mm 5 m/S 740 mmHg 63%
17:00 +17°C° 0 mm 5 m/S 740 mmHg 67%
18:00 +17°C° 0 mm 5 m/S 740 mmHg 66%
19:00 +16°C° 0 mm 6 m/S 740 mmHg 66%
20:00 +15°C° 0 mm 6 m/S 740 mmHg 65%
21:00 +15°C° 0 mm 6 m/S 740 mmHg 66%
22:00 +14°C° 0 mm 6 m/S 740 mmHg 66%
23:00 +14°C° 0 mm 6 m/S 740 mmHg 67%

27 September, Sonntag

Zeit Temperatur Niederschläge Wind Luftdruck Luftfeuchtigkeit
00:00 +13°C° 0 mm 6 m/S 740 mmHg 67%
01:00 +13°C° 0 mm 6 m/S 740 mmHg 66%
02:00 +13°C° 0 mm 6 m/S 740 mmHg 66%
03:00 +13°C° 0 mm 6 m/S 740 mmHg 65%
04:00 +13°C° 0 mm 6 m/S 740 mmHg 65%
05:00 +13°C° 0 mm 6 m/S 740 mmHg 64%
06:00 +13°C° 0 mm 6 m/S 740 mmHg 65%
07:00 +14°C° 0 mm 7 m/S 740 mmHg 65%
08:00 +14°C° 0 mm 7 m/S 740 mmHg 65%
09:00 +16°C° 0 mm 8 m/S 740 mmHg 62%
10:00 +17°C° 0 mm 8 m/S 741 mmHg 58%
11:00 +18°C° 0 mm 9 m/S 741 mmHg 54%
12:00 +20°C° 0 mm 8 m/S 741 mmHg 53%
13:00 +20°C° 0 mm 8 m/S 741 mmHg 51%
14:00 +20°C° 0 mm 8 m/S 740 mmHg 50%
15:00 +18°C° 0 mm 8 m/S 740 mmHg 52%
16:00 +17°C° 0 mm 7 m/S 740 mmHg 53%
17:00 +16°C° 0 mm 7 m/S 740 mmHg 55%
18:00 +15°C° 0 mm 7 m/S 740 mmHg 54%
19:00 +15°C° 0 mm 7 m/S 740 mmHg 52%
20:00 +15°C° 0 mm 7 m/S 740 mmHg 51%
21:00 +15°C° 0 mm 7 m/S 740 mmHg 49%
22:00 +15°C° 0 mm 7 m/S 740 mmHg 48%
23:00 +15°C° 0 mm 7 m/S 739 mmHg 47%

28 September, Montag

Zeit Temperatur Niederschläge Wind Luftdruck Luftfeuchtigkeit
00:00 +14°C° 0.2 mm 7 m/S 739 mmHg 55%
01:00 +14°C° 0.2 mm 7 m/S 739 mmHg 64%
02:00 +12°C° 0.2 mm 7 m/S 739 mmHg 72%
03:00 +11°C° 1 mm 7 m/S 739 mmHg 78%
04:00 +11°C° 1 mm 7 m/S 739 mmHg 83%
05:00 +11°C° 1 mm 8 m/S 739 mmHg 89%
06:00 +11°C° 0.2 mm 8 m/S 739 mmHg 87%
07:00 +11°C° 0.2 mm 7 m/S 739 mmHg 85%
08:00 +11°C° 0.2 mm 7 m/S 739 mmHg 83%
09:00 +12°C° 0 mm 7 m/S 739 mmHg 80%
10:00 +14°C° 0 mm 7 m/S 739 mmHg 78%
11:00 +14°C° 0 mm 6 m/S 740 mmHg 75%
12:00 +15°C° 0 mm 6 m/S 740 mmHg 75%
13:00 +15°C° 0 mm 6 m/S 740 mmHg 75%
14:00 +15°C° 0 mm 6 m/S 739 mmHg 76%
15:00 +15°C° 0.3 mm 6 m/S 739 mmHg 78%
16:00 +14°C° 0.3 mm 6 m/S 739 mmHg 81%
17:00 +13°C° 0.3 mm 6 m/S 739 mmHg 84%
18:00 +13°C° 0.3 mm 6 m/S 739 mmHg 86%
19:00 +13°C° 0.3 mm 6 m/S 739 mmHg 87%
20:00 +11°C° 0.3 mm 6 m/S 740 mmHg 89%
21:00 +11°C° 0 mm 6 m/S 740 mmHg 89%
22:00 +12°C° 0 mm 5 m/S 740 mmHg 90%
23:00 +12°C° 0 mm 5 m/S 740 mmHg 90%
Mehr zeigen